Home   Weather   Melbourne   Past weeks
Flag for USA

Past Weather in Melbourne, Tennessee, USA — Yesterday and Last 2 Weeks

Now
80 °F

Broken clouds.


Feels Like: 84 °F
Forecast: 87 / 73 °F
Wind: 10 mph from Southwest

Location: McGhee Tyson Airport

Current Time: Jul 17, 2019 at 8:45:50 pm

Latest Report: Jul 17, 2019 at 7:53 pm


Visibility: 10 mi

Pressure: 29.98 "Hg

Humidity: 79%

Dew Point: 73 °F

Location of MelbourneLocation

Past Weather in Melbourne — Graph

°F

Melbourne Temperature Yesterday

Maximum temperature yesterday: 92 °F (at 3:53 pm)
Minimum temperature yesterday: 73 °F (at 2:53 am)
Average temperature yesterday: 82 °F

High & Low Weather Summary for the Past Weeks

 TemperatureHumidityPressure
High94 °F (Jul 9, 4:53 pm)97% (Jul 3, 2:53 am)30.20 "Hg (Jul 3, 2:53 am)
Low67 °F (Jul 4, 4:53 am)38% (Jul 16, 5:53 pm)29.83 "Hg (Jul 11, 5:53 pm)
Average79 °F75%29.99 "Hg
* Reported Jul 2 6:53 pm — Jul 17 6:53 pm, Melbourne. Weather by CustomWeather, © 2019

Note: Actual official high and low records may vary slightly from our data, if they occured in-between our weather recording intervals... More about our weather records

Advertising

Melbourne Weather History for the Previous 24 Hours

Scroll right to see more
 ConditionsComfort  
Time TempWeatherWind HumidityBarometerVisibility
6:53 pm
Wed, Jul 17
80 °FBroken clouds.10 mph79%29.99 "Hg10 mi
6:00 pm78 °FRain. Mostly cloudy.16 mph84%30.04 "Hg3 mi
5:20 pm80 °FCloudy.12 mph76%30.04 "Hg10 mi
4:53 pm81 °FMostly cloudy.15 mph74%30.01 "Hg10 mi
3:53 pm80 °FCloudy.10 mph79%30.02 "Hg10 mi
3:24 pm79 °FBroken clouds.15 mph79%30.06 "Hg10 mi
3:03 pm78 °FMostly cloudy.15 mph82%30.07 "Hg10 mi
2:53 pm78 °FMore clouds than sun.17 mph82%30.03 "Hg10 mi
2:24 pm79 °FLight rain. Partly sunny.14 mph82%30.08 "Hg10 mi
1:53 pm78 °FLight rain. Mostly cloudy.14 mph84%30.05 "Hg10 mi
1:37 pm77 °FLight rain. Mostly cloudy.13 mph88%30.09 "Hg10 mi
12:53 pm79 °FLight rain. Mostly cloudy.16 mph82%30.06 "Hg10 mi
11:53 am77 °FLight rain. Mostly cloudy.10 mph88%30.06 "Hg10 mi
11:15 am75 °FMostly cloudy.7 mph90%30.10 "Hg10 mi
10:53 am74 °FLight rain. Broken clouds.6 mph94%30.07 "Hg10 mi
9:53 am73 °FRain. Fog.9 mph94%30.07 "Hg3 mi
9:28 am74 °FRain. Fog.13 mph91%30.10 "Hg2 mi
8:53 am77 °FBroken clouds.7 mph82%30.04 "Hg10 mi
7:53 am74 °FLight rain. Partly sunny.7 mph88%30.03 "Hg10 mi
6:53 am74 °FLight rain. Fog.13 mph88%30.02 "Hg5 mi
5:53 am74 °FPassing clouds.6 mph82%30.01 "Hg10 mi
4:53 am74 °FPartly cloudy.7 mph79%30.01 "Hg10 mi
3:53 am75 °FPassing clouds.8 mph79%30.02 "Hg10 mi
2:53 am77 °FPassing clouds.6 mph74%30.02 "Hg10 mi
1:53 am78 °FPassing clouds.7 mph69%30.03 "Hg10 mi
12:53 am78 °FPassing clouds.6 mph71%30.03 "Hg10 mi
11:53 pm
Tue, Jul 16
80 °FPassing clouds.6 mph67%30.04 "Hg10 mi
10:53 pm80 °FPassing clouds.8 mph67%30.03 "Hg10 mi
9:53 pm81 °FPassing clouds.7 mph65%30.03 "Hg10 mi
8:53 pm84 °FPassing clouds.7 mph59%30.02 "Hg10 mi
Weather by CustomWeather, © 2019

See weather overview